Tracking 35237 objects as of 6-Sep-2026
HD Live streaming from Space Station
objects crossing your sky now

MICROSAT-R DEB


MICROSAT-R DEB is no longer on orbit


NORAD ID: 44503
Int'l Code: 2019-006EB
Launch date: January 24, 2019
Source: India (IND)
Launch site: SRIHARIKOTA (SRI)
Decay date: 2019-12-13

Note: This is SATELLITE DEBRIS
Your satellite tracking list
Your tracking list is empty




NASA's NSSDC Master Catalog

Two Line Element Set (TLE):
1 44503U 19006EB  19347.09378842 +.23637625 +10231-5 +31297-2 0  9997
2 44503 095.1429 164.0909 0023415 236.3226 123.5843 16.34651076020025
Source of the keplerian elements: AFSPC